,,PA_Meas_PMT16A,,PR_Meas_QMR101_102,,RH_Meas_QMH101,,SR_Meas_QMS101,,TA_Meas_QMH101,,GenWind,,GenWind,
time,status,PA,status,PR,status,RH,status,SR,status,TA,status,DirAvg,status,SpdAvg,
2013-10-11, 06:58:04,VALID,918.936,VALID,0,VALID,97.008,VALID,78.6469,VALID,19.7808,VALID,138,VALID,0,
2013-10-11, 15:18:04,VALID,915.459,VALID,0,VALID,95.4223,VALID,54.0429,VALID,21.9216,VALID,199,VALID,0,
2013-10-11, 15:19:04,VALID,915.425,VALID,0,VALID,95.4528,VALID,55.762,VALID,21.9216,VALID,204,VALID,0,
2013-10-11, 15:20:04,VALID,915.448,VALID,0,VALID,95.468,VALID,57.5885,VALID,21.9428,VALID,201,VALID,0,
2013-10-11, 15:21:04,VALID,915.431,VALID,0,VALID,95.4909,VALID,59.7373,VALID,21.8631,VALID,177,VALID,0,
2013-10-11, 15:22:04,VALID,915.425,VALID,0,VALID,95.4223,VALID,62.3159,VALID,21.8452,VALID,219,VALID,0,
2013-10-11, 15:23:04,VALID,915.402,VALID,0,VALID,95.3994,VALID,64.2498,VALID,21.8257,VALID,203,VALID,0,
2013-10-11, 15:24:04,VALID,915.421,VALID,0,VALID,95.3918,VALID,65.754,VALID,21.8257,VALID,238,VALID,0,
2013-10-11, 15:25:04,VALID,915.441,VALID,0,VALID,95.2775,VALID,66.721,VALID,21.7282,VALID,250,VALID,0,
2013-10-11, 15:26:04,VALID,915.438,VALID,0,VALID,95.3461,VALID,64.5721,VALID,21.7282,VALID,241,VALID,0,
2013-10-11, 15:27:04,VALID,915.469,VALID,0,VALID,95.468,VALID,64.2498,VALID,21.7477,VALID,247,VALID,0,
2013-10-11, 15:28:04,VALID,915.5,VALID,0,VALID,95.4528,VALID,63.2828,VALID,21.6696,VALID,254,VALID,0,
2013-10-11, 15:29:04,VALID,915.547,VALID,0,VALID,95.468,VALID,58.448,VALID,21.6309,65535,65535,
2013-10-11, 15:35:04,VALID,915.55,VALID,0,VALID,95.6281,VALID,54.5801,VALID,21.2795,VALID,264,VALID,0,
2013-10-11, 15:36:04,VALID,915.556,VALID,0,VALID,95.5671,VALID,58.0182,VALID,21.1429,VALID,249,VALID,0,
2013-10-11, 15:37:04,VALID,915.536,VALID,0,VALID,95.5443,VALID,58.8778,VALID,21.0844,VALID,232,VALID,0,
2013-10-11, 15:38:04,VALID,915.558,VALID,0.2,VALID,95.6205,VALID,59.0926,VALID,21.1039,VALID,249,VALID,0,
2013-10-11, 15:39:04,VALID,915.578,VALID,0,VALID,95.712,VALID,55.3322,VALID,21.0828,VALID,247,VALID,0,
2013-10-11, 15:42:04,VALID,915.576,VALID,0,VALID,95.9483,VALID,54.9024,VALID,21.26,VALID,252,VALID,0,
2013-10-11, 15:43:04,VALID,915.517,VALID,0,VALID,95.9788,VALID,60.0596,VALID,21.26,VALID,252,VALID,0,
2013-10-11, 15:44:04,VALID,915.508,VALID,0,VALID,96.0245,VALID,61.3489,VALID,21.299,VALID,252,VALID,0,
2013-10-11, 15:45:04,VALID,915.484,VALID,0,VALID,96.0474,VALID,60.3819,VALID,21.377,VALID,252,VALID,0,
2013-10-11, 15:46:04,VALID,915.458,VALID,0,VALID,96.0703,VALID,61.3489,VALID,21.3185,VALID,251,VALID,0,
2013-10-11, 15:47:04,VALID,915.47,VALID,0,VALID,96.0245,VALID,63.4977,VALID,21.2405,VALID,283,VALID,0,
2013-10-11, 15:48:04,VALID,915.441,VALID,0,VALID,96.0703,VALID,65.8614,VALID,21.377,VALID,283,VALID,0,
2013-10-11, 15:49:04,VALID,915.436,VALID,0,VALID,96.1008,VALID,67.2582,VALID,21.3591,VALID,283,VALID,0,
2013-10-11, 15:50:04,VALID,915.391,VALID,0,VALID,96.0627,VALID,67.473,VALID,21.3575,VALID,3,VALID,0,
2013-10-11, 15:51:04,VALID,915.375,VALID,0,VALID,96.0474,VALID,66.8284,VALID,21.3185,VALID,2,VALID,0,
2013-10-11, 15:52:04,VALID,915.379,VALID,0,VALID,96.0627,VALID,66.1837,VALID,21.3575,VALID,3,VALID,0,
2013-10-11, 15:53:04,VALID,915.336,VALID,0,VALID,96.0855,VALID,65.5391,VALID,21.416,VALID,3,VALID,0,
2013-10-11, 15:54:04,VALID,915.36,VALID,0,VALID,96.0932,VALID,65.4317,VALID,21.4372,VALID,344,VALID,0,
2013-10-11, 15:55:04,VALID,915.362,VALID,0,VALID,96.0779,VALID,65.3242,VALID,21.377,VALID,332,VALID,0,
2013-10-11, 15:56:04,VALID,915.38,VALID,0,VALID,96.0779,VALID,64.787,VALID,21.4177,VALID,332,VALID,0,
2013-10-11, 15:57:04,VALID,915.354,VALID,0,VALID,96.1084,VALID,63.2828,VALID,21.4177,VALID,332,VALID,0,
2013-10-11, 15:58:04,VALID,915.326,VALID,0,VALID,96.1236,VALID,63.9275,VALID,21.4941,VALID,332,VALID,0,
2013-10-11, 15:59:04,VALID,915.299,VALID,0,VALID,96.1694,VALID,66.721,VALID,21.5737,VALID,352,VALID,0,
2013-10-11, 16:00:04,VALID,915.258,VALID,0,VALID,96.1694,VALID,64.787,VALID,21.5526,VALID,3,VALID,0,
2013-10-11, 16:01:04,VALID,915.274,VALID,0,VALID,96.1389,VALID,68.5475,VALID,21.5152,VALID,3,VALID,0,
2013-10-11, 16:02:04,VALID,915.29,VALID,0,VALID,96.1389,VALID,73.8121,VALID,21.4567,VALID,3,VALID,0,
2013-10-11, 16:03:04,VALID,915.308,VALID,0,VALID,96.1465,VALID,76.4981,VALID,21.4762,VALID,3,VALID,0,
2013-10-11, 16:04:04,VALID,915.319,VALID,0,VALID,96.1313,VALID,77.3576,VALID,21.4762,VALID,3,VALID,0,
2013-10-11, 16:05:04,VALID,915.337,VALID,0,VALID,96.1846,VALID,79.7213,VALID,21.5932,VALID,3,VALID,0,
2013-10-11, 16:06:04,VALID,915.369,VALID,0,VALID,96.1923,VALID,82.085,VALID,21.5152,VALID,3,VALID,0,
2013-10-11, 16:07:04,VALID,915.373,VALID,0,VALID,96.1999,VALID,81.8702,VALID,21.5932,VALID,3,VALID,0,
2013-10-11, 16:08:04,VALID,915.396,VALID,0,VALID,96.1999,VALID,78.3246,VALID,21.6306,VALID,3,VALID,0,
2013-10-11, 16:09:04,VALID,915.417,VALID,0,VALID,96.1923,VALID,75.6386,VALID,21.5737,VALID,350,VALID,0,
2013-10-11, 16:10:04,VALID,915.421,VALID,0,VALID,96.1694,VALID,84.5562,VALID,21.5542,VALID,350,VALID,0,
2013-10-11, 16:11:04,VALID,915.392,VALID,0,VALID,96.1618,VALID,92.2919,VALID,21.4957,VALID,298,VALID,0,
2013-10-11, 16:12:04,VALID,915.389,VALID,0,VALID,96.1313,VALID,93.3664,VALID,21.3396,VALID,282,VALID,0,
2013-10-11, 16:13:04,VALID,915.378,VALID,0,VALID,96.0017,VALID,93.6887,VALID,21.1819,VALID,282,VALID,0,
2013-10-11, 16:14:04,VALID,915.399,VALID,0,VALID,96.0093,VALID,93.1515,VALID,21.2421,VALID,282,VALID,0,
2013-10-11, 16:15:04,VALID,915.419,VALID,0,VALID,96.0322,VALID,91.9696,VALID,21.2437,VALID,282,VALID,0,
2013-10-11, 16:16:04,VALID,915.412,VALID,0,VALID,96.0322,VALID,90.5729,VALID,21.2421,VALID,282,VALID,0,
2013-10-11, 16:17:04,VALID,915.415,VALID,0,VALID,96.0779,VALID,87.8869,VALID,21.2811,VALID,282,VALID,0,
2013-10-11, 16:18:04,VALID,915.419,VALID,0,VALID,96.1084,VALID,84.4487,VALID,21.2795,VALID,282,VALID,0,
2013-10-11, 16:19:04,VALID,915.404,VALID,0,VALID,96.1084,VALID,81.333,VALID,21.3006,VALID,282,VALID,0,
2013-10-11, 16:20:04,VALID,915.444,VALID,0,VALID,96.0855,VALID,79.0767,VALID,21.2811,VALID,282,VALID,0,
2013-10-11, 16:21:04,VALID,915.439,VALID,0,VALID,96.0779,VALID,77.68,VALID,21.3006,VALID,282,VALID,0,
2013-10-11, 16:22:04,VALID,915.488,VALID,0,VALID,96.0627,VALID,76.3907,VALID,21.3006,VALID,282,VALID,0,
2013-10-11, 16:23:04,VALID,915.469,VALID,0,VALID,96.0322,VALID,74.027,VALID,21.2795,VALID,282,VALID,0,
2013-10-11, 16:24:04,VALID,915.484,VALID,0,VALID,96.0245,VALID,71.126,VALID,21.3006,VALID,282,VALID,0,
2013-10-11, 16:25:04,VALID,915.481,VALID,0,VALID,95.9559,VALID,68.1177,VALID,21.2421,VALID,282,VALID,0,
2013-10-11, 16:26:04,VALID,915.479,VALID,0,VALID,95.9026,VALID,64.6796,VALID,21.221,VALID,282,VALID,0,
2013-10-11, 16:27:04,VALID,915.478,VALID,0,VALID,95.8416,VALID,61.6712,VALID,21.164,VALID,282,VALID,0,
2013-10-11, 16:28:04,VALID,915.491,VALID,0,VALID,95.7501,VALID,58.9852,VALID,21.1445,VALID,282,VALID,0,
2013-10-11, 16:29:04,VALID,915.492,VALID,0,VALID,95.7654,VALID,57.1587,VALID,21.1836,VALID,282,VALID,0,
2013-10-11, 16:30:04,VALID,915.498,VALID,0,VALID,95.8111,VALID,55.9768,VALID,21.2421,VALID,282,VALID,0,
2013-10-11, 16:31:04,VALID,915.497,VALID,0,VALID,95.7501,VALID,54.6875,VALID,21.2242,VALID,282,VALID,0,
2013-10-11, 16:32:04,VALID,915.487,VALID,0,VALID,95.7272,VALID,53.3983,VALID,21.2226,VALID,283,VALID,0,
2013-10-11, 16:33:04,VALID,915.48,VALID,0,VALID,95.7272,VALID,53.1834,VALID,21.2226,VALID,282,VALID,0,
2013-10-11, 16:34:04,VALID,915.456,VALID,0,VALID,95.712,VALID,53.828,VALID,21.2421,VALID,282,VALID,0,
2013-10-11, 16:35:04,VALID,915.472,VALID,0,VALID,95.7577,VALID,55.1173,VALID,21.3006,VALID,282,VALID,0,
2013-10-11, 16:36:04,VALID,915.471,VALID,0,VALID,95.773,VALID,56.6215,VALID,21.3396,VALID,282,VALID,0,
2013-10-11, 16:37:04,VALID,915.453,VALID,0,VALID,95.7501,VALID,57.0513,VALID,21.2811,VALID,282,VALID,0,
2013-10-11, 16:38:04,VALID,915.43,VALID,0,VALID,95.6891,VALID,56.2992,VALID,21.3006,VALID,352,VALID,0,
2013-10-11, 16:39:04,VALID,915.423,VALID,0,VALID,95.6662,VALID,55.5471,VALID,21.3201,VALID,6,VALID,0,
2013-10-11, 16:40:04,VALID,915.405,VALID,0,VALID,95.6891,VALID,55.1173,VALID,21.3201,VALID,47,VALID,0,
2013-10-11, 16:41:04,VALID,915.411,VALID,0,VALID,95.6967,VALID,54.6875,VALID,21.3006,VALID,73,VALID,0,
2013-10-11, 16:42:04,VALID,915.429,VALID,0,VALID,95.7501,VALID,54.5801,VALID,21.3201,VALID,77,VALID,0,
2013-10-11, 16:43:04,VALID,915.438,VALID,0,VALID,95.7349,VALID,54.795,VALID,21.2616,VALID,92,VALID,0,
2013-10-11, 16:44:04,VALID,915.4,VALID,0,VALID,95.7196,VALID,54.9024,VALID,21.2421,VALID,102,VALID,0,
2013-10-11, 16:45:04,VALID,915.462,VALID,0,VALID,95.7196,VALID,55.1173,VALID,21.2226,VALID,98,VALID,0,
2013-10-11, 16:46:04,VALID,915.418,VALID,0,VALID,95.7349,VALID,55.4396,VALID,21.1836,VALID,98,VALID,0,
2013-10-11, 16:47:04,VALID,915.443,VALID,0,VALID,95.7044,VALID,56.2992,VALID,21.164,VALID,98,VALID,0,
2013-10-11, 16:48:04,VALID,915.44,VALID,0,VALID,95.7425,VALID,57.0513,VALID,21.1836,VALID,98,VALID,0,
2013-10-11, 16:49:04,VALID,915.43,VALID,0,VALID,95.7654,VALID,57.5885,VALID,21.1624,VALID,102,VALID,0,
2013-10-11, 16:50:04,VALID,915.436,VALID,0,VALID,95.7958,VALID,57.5885,VALID,21.2031,VALID,105,VALID,0,
2013-10-11, 16:51:04,VALID,915.443,VALID,0,VALID,95.8111,VALID,57.0513,VALID,21.2015,VALID,107,VALID,0,
2013-10-11, 16:52:04,VALID,915.468,VALID,0,VALID,95.834,VALID,55.8694,VALID,21.2616,VALID,127,VALID,0,
2013-10-11, 16:53:04,VALID,915.491,VALID,0,VALID,95.8797,VALID,54.795,VALID,21.2811,VALID,136,VALID,0,
2013-10-11, 16:54:04,VALID,915.557,VALID,0,VALID,95.8873,VALID,53.5057,VALID,21.2616,VALID,136,VALID,0,
2013-10-11, 16:55:04,VALID,915.584,VALID,0,VALID,95.8645,VALID,51.7866,VALID,21.2226,VALID,130,VALID,0,
2013-10-11, 16:56:04,VALID,915.594,VALID,0,VALID,95.8645,VALID,52.6462,VALID,21.2226,VALID,114,VALID,0,
2013-10-11, 16:57:04,VALID,915.602,VALID,0,VALID,95.8721,VALID,52.2164,VALID,21.2226,VALID,133,VALID,0,
2013-10-11, 16:58:04,VALID,915.629,VALID,0,VALID,95.9178,VALID,50.3899,VALID,21.2226,VALID,131,VALID,0,
2013-10-11, 16:59:04,VALID,915.639,VALID,0,VALID,95.9331,VALID,51.0345,VALID,21.2405,VALID,160,VALID,0,
2013-10-11, 17:00:04,VALID,915.675,VALID,0,VALID,95.9636,VALID,50.175,VALID,21.3006,VALID,160,VALID,0,
2013-10-11, 17:01:04,VALID,915.725,VALID,0,VALID,95.9864,VALID,48.7783,VALID,21.3006,VALID,160,VALID,0,
2013-10-11, 17:02:04,VALID,915.746,VALID,0,VALID,95.9864,VALID,47.489,VALID,21.2811,VALID,173,VALID,0,
2013-10-11, 18:34:04,VALID,917.02,VALID,0,VALID,96.5201,VALID,0,VALID,20.7349,VALID,244,VALID,0,
2013-10-11, 18:35:04,VALID,916.992,VALID,0,VALID,96.5429,VALID,0,VALID,20.7349,VALID,237,VALID,0,
2013-10-11, 18:36:04,VALID,916.993,VALID,0,VALID,96.5429,VALID,0,VALID,20.7755,VALID,237,VALID,0,
2013-10-11, 18:37:04,VALID,916.99,VALID,0,VALID,96.5353,VALID,0.107441,VALID,20.756,VALID,238,VALID,0,
2013-10-11, 18:38:04,VALID,916.999,VALID,0,VALID,96.5429,VALID,0,VALID,20.7349,VALID,238,VALID,0,
2013-10-11, 18:39:04,VALID,917.004,VALID,0,VALID,96.5658,VALID,0,VALID,20.795,VALID,238,VALID,0,
2013-10-11, 18:40:04,VALID,917.021,VALID,0,VALID,96.5658,VALID,0,VALID,20.8145,VALID,351,VALID,0,
2013-10-11, 18:41:04,VALID,916.989,VALID,0,VALID,96.5658,VALID,0,VALID,20.8324,VALID,30,VALID,0,
2013-10-11, 18:42:04,VALID,916.995,VALID,0,VALID,96.5582,VALID,0,VALID,20.8324,VALID,24,VALID,0,
2013-10-11, 18:43:04,VALID,916.978,VALID,0,VALID,96.5658,VALID,0,VALID,20.8535,VALID,21,VALID,0,
2013-10-11, 18:44:04,VALID,916.93,VALID,0,VALID,96.5658,VALID,0.107441,VALID,20.795,VALID,21,VALID,0,
2013-10-11, 18:45:04,VALID,916.928,VALID,0,VALID,96.5506,VALID,0.107441,VALID,20.7934,VALID,22,VALID,0,
2013-10-11, 18:46:04,VALID,916.945,VALID,0,VALID,96.5429,VALID,0,VALID,20.7755,VALID,18,VALID,0,
2013-10-11, 18:47:04,VALID,916.947,VALID,0,VALID,96.5429,VALID,0,VALID,20.7154,VALID,20,VALID,0,
2013-10-11, 18:48:04,VALID,917.003,VALID,0,VALID,96.5658,VALID,0,VALID,20.717,VALID,4,VALID,0,
2013-10-11, 18:49:04,VALID,917.042,VALID,0,VALID,96.5582,VALID,0.107441,VALID,20.6959,VALID,10,VALID,0,
2013-10-11, 18:50:04,VALID,917.088,VALID,0,VALID,96.5353,VALID,0,VALID,20.6569,VALID,1,VALID,0,
2013-10-11, 18:51:04,VALID,917.12,VALID,0,VALID,96.5429,VALID,0.107441,VALID,20.6374,VALID,5,VALID,0,
2013-10-11, 18:52:04,VALID,917.153,VALID,0,VALID,96.5506,VALID,0,VALID,20.639,VALID,5,VALID,0,
2013-10-11, 18:53:04,VALID,917.23,VALID,0,VALID,96.5582,VALID,0.107441,VALID,20.5984,VALID,12,VALID,0,
2013-10-11, 18:54:04,VALID,917.279,VALID,0,VALID,96.5582,VALID,0.107441,VALID,20.6374,VALID,13,VALID,0,
2013-10-11, 18:55:04,VALID,917.291,VALID,0,VALID,96.5582,VALID,0.107441,VALID,20.6764,VALID,14,VALID,0,
2013-10-11, 18:56:04,VALID,917.351,VALID,0,VALID,96.5887,VALID,0,VALID,20.7349,VALID,14,VALID,0,
2013-10-11, 18:57:04,VALID,917.348,VALID,0,VALID,96.6039,VALID,0.107441,VALID,20.7349,VALID,350,VALID,0,
2013-10-11, 18:58:04,VALID,917.361,VALID,0,VALID,96.5963,VALID,0,VALID,20.717,VALID,350,VALID,0,
2013-10-11, 18:59:04,VALID,917.419,VALID,0,VALID,96.6115,VALID,0,VALID,20.717,INVALID,360,VALID,0,
2013-10-11, 19:00:04,VALID,917.455,VALID,0,VALID,96.6039,VALID,0,VALID,20.6764,VALID,350,VALID,0,
2013-10-11, 19:01:04,VALID,917.468,VALID,0,VALID,96.6115,VALID,0,VALID,20.7154,VALID,350,VALID,0,
2013-10-11, 19:02:04,VALID,917.522,VALID,0,VALID,96.6344,VALID,0.107441,VALID,20.6959,VALID,351,VALID,0,
2013-10-11, 19:03:04,VALID,917.59,VALID,0,VALID,96.6268,VALID,0,VALID,20.7349,VALID,352,VALID,0,
2013-10-11, 19:04:04,VALID,917.617,VALID,0,VALID,96.6268,VALID,0,VALID,20.7544,VALID,352,VALID,0,
2013-10-11, 19:05:04,VALID,917.663,VALID,0,VALID,96.6192,VALID,0.107441,VALID,20.7544,VALID,352,VALID,0,
2013-10-11, 19:06:04,VALID,917.692,VALID,0,VALID,96.6268,VALID,0.107441,VALID,20.7723,VALID,345,VALID,0,
2013-10-11, 19:07:04,VALID,917.734,VALID,0,VALID,96.642,VALID,0.107441,VALID,20.8714,INVALID,360,VALID,0,
2013-10-11, 19:08:04,VALID,917.72,VALID,0,VALID,96.6115,VALID,0,VALID,20.8519,VALID,345,VALID,0,
2013-10-11, 19:09:04,VALID,917.733,VALID,0,VALID,96.642,VALID,0,VALID,20.891,VALID,351,VALID,0,
2013-10-11, 19:10:04,VALID,917.72,VALID,0,VALID,96.642,VALID,0,VALID,20.9316,VALID,2,VALID,0,
2013-10-11, 19:11:04,VALID,917.749,VALID,0,VALID,96.6192,VALID,0,VALID,20.9105,VALID,2,VALID,0,
2013-10-11, 19:12:04,VALID,917.735,VALID,0,VALID,96.642,VALID,0,VALID,20.9105,VALID,2,VALID,0,
2013-10-11, 19:13:04,VALID,917.748,VALID,0,VALID,96.6497,VALID,0,VALID,20.9316,VALID,2,VALID,0,
2013-10-11, 19:14:04,VALID,917.76,VALID,0,VALID,96.6344,VALID,0,VALID,20.969,VALID,2,VALID,0,
2013-10-11, 19:15:04,VALID,917.761,VALID,0,VALID,96.6497,VALID,0,VALID,21.0291,VALID,2,VALID,0,
2013-10-11, 19:16:04,VALID,917.759,VALID,0,VALID,96.6344,VALID,0,VALID,21.0275,VALID,2,VALID,0,
2013-10-11, 19:17:04,VALID,917.736,VALID,0,VALID,96.642,VALID,0.107441,VALID,20.9885,VALID,4,VALID,0,
2013-10-11, 19:18:04,VALID,917.75,VALID,0,VALID,96.6344,VALID,0,VALID,20.969,VALID,12,VALID,0,
2013-10-11, 19:19:04,VALID,917.758,VALID,0,VALID,96.6192,VALID,0,VALID,20.9901,VALID,29,VALID,0,
2013-10-11, 19:20:04,VALID,917.755,VALID,0,VALID,96.6115,VALID,0.107441,VALID,20.9495,VALID,13,VALID,0,
2013-10-11, 19:21:04,VALID,917.753,VALID,0,VALID,96.6192,VALID,0,VALID,20.912,INVALID,360,VALID,0,
2013-10-11, 19:22:04,VALID,917.761,VALID,0,VALID,96.6039,VALID,0,VALID,20.8925,VALID,3,VALID,0,
2013-10-11, 19:23:04,VALID,917.761,VALID,0,VALID,96.5963,VALID,0,VALID,20.7934,VALID,348,VALID,0,
2013-10-11, 19:24:04,VALID,917.777,VALID,0,VALID,96.5963,VALID,0,VALID,20.8129,VALID,17,VALID,0,
2013-10-11, 19:25:04,VALID,917.786,VALID,0,VALID,96.6039,VALID,0,VALID,20.834,INVALID,360,VALID,0,
2013-10-11, 19:26:04,VALID,917.763,VALID,0,VALID,96.6192,VALID,0,VALID,20.8129,INVALID,360,VALID,0,
2013-10-11, 19:27:04,VALID,917.752,VALID,0,VALID,96.6192,VALID,0.107441,VALID,20.7934,VALID,343,VALID,0,
2013-10-11, 19:28:04,VALID,917.735,VALID,0,VALID,96.6039,VALID,0.107441,VALID,20.8113,VALID,343,VALID,0,
2013-10-11, 19:29:04,VALID,917.719,VALID,0,VALID,96.6039,VALID,0,VALID,20.8129,VALID,338,VALID,0,
2013-10-11, 19:30:04,VALID,917.736,VALID,0,VALID,96.5963,VALID,0,VALID,20.7739,VALID,340,VALID,0,
2013-10-11, 19:31:04,VALID,917.735,VALID,0,VALID,96.6039,VALID,0,VALID,20.7739,VALID,329,VALID,0,
2013-10-11, 19:32:04,VALID,917.712,VALID,0,VALID,96.6039,VALID,0,VALID,20.7544,VALID,2,VALID,0,
2013-10-11, 19:33:04,VALID,917.748,VALID,0,VALID,96.5963,VALID,0,VALID,20.8129,VALID,360,VALID,0,
2013-10-11, 19:34:04,VALID,917.771,VALID,0,VALID,96.5963,VALID,0,VALID,20.756,VALID,360,VALID,0,
2013-10-11, 19:35:04,VALID,917.8,VALID,0,VALID,96.5963,VALID,0,VALID,20.8356,VALID,355,VALID,0,
2013-10-11, 19:36:04,VALID,917.816,VALID,0,VALID,96.6039,VALID,0,VALID,20.756,VALID,323,VALID,0,
2013-10-11, 19:37:04,VALID,917.837,VALID,0,VALID,96.6115,VALID,0,VALID,20.7365,VALID,360,VALID,0,
2013-10-11, 19:38:04,VALID,917.867,VALID,0,VALID,96.6039,VALID,0,VALID,20.7365,VALID,7,VALID,0,
2013-10-11, 19:39:04,VALID,917.881,VALID,0,VALID,96.6039,VALID,0,VALID,20.756,VALID,1,VALID,0,
2013-10-11, 19:40:04,VALID,917.905,VALID,0,VALID,96.6039,VALID,0,VALID,20.834,VALID,8,VALID,0,
2013-10-11, 19:41:04,VALID,917.896,VALID,0,VALID,96.6115,VALID,0,VALID,20.8145,VALID,355,VALID,0,
2013-10-11, 19:42:04,VALID,917.901,VALID,0,VALID,96.6039,VALID,0,VALID,20.7755,VALID,343,VALID,0,
2013-10-11, 19:43:04,VALID,917.907,VALID,0,VALID,96.6268,VALID,0,VALID,20.7771,VALID,322,VALID,0,
2013-10-11, 19:44:04,VALID,917.928,VALID,0.2,VALID,96.6192,VALID,0,VALID,20.7755,VALID,356,VALID,0,
2013-10-11, 19:45:04,VALID,917.891,VALID,0,VALID,96.6344,VALID,0,VALID,20.834,VALID,358,VALID,0,
2013-10-11, 19:46:04,VALID,917.913,VALID,0.2,VALID,96.6344,VALID,0,VALID,20.8356,VALID,8,VALID,0,
2013-10-11, 19:47:04,VALID,917.907,VALID,0,VALID,96.642,VALID,0,VALID,20.7966,VALID,9,VALID,0,
2013-10-11, 19:48:04,VALID,917.872,VALID,0,VALID,96.6497,VALID,0,VALID,20.8535,VALID,353,VALID,0,
2013-10-11, 19:49:04,VALID,917.866,VALID,0.2,VALID,96.6344,VALID,0,VALID,20.795,VALID,336,VALID,0,
2013-10-11, 19:50:04,VALID,917.881,VALID,0,VALID,96.6268,VALID,0,VALID,20.756,VALID,8,VALID,0,
2013-10-11, 19:51:04,VALID,917.856,VALID,0,VALID,96.6497,VALID,0,VALID,20.7576,VALID,8,VALID,0,
2013-10-11, 19:52:04,VALID,917.849,VALID,0,VALID,96.6268,VALID,0,VALID,20.7576,VALID,8,VALID,0,
2013-10-11, 19:53:04,VALID,917.884,VALID,0,VALID,96.6344,VALID,0,VALID,20.8145,VALID,8,VALID,0,
2013-10-11, 19:54:04,VALID,917.894,VALID,0,VALID,96.642,VALID,0,VALID,20.756,VALID,8,VALID,0,
2013-10-11, 19:55:04,VALID,917.893,VALID,0,VALID,96.6573,VALID,0,VALID,20.7755,VALID,8,VALID,0,
2013-10-11, 19:56:04,VALID,917.97,VALID,0,VALID,96.6344,VALID,0,VALID,20.7365,VALID,8,VALID,0,
2013-10-11, 19:57:04,VALID,917.976,VALID,0,VALID,96.6268,VALID,0,VALID,20.7755,VALID,8,VALID,0,
2013-10-11, 19:58:04,VALID,917.985,VALID,0.2,VALID,96.642,VALID,0,VALID,20.7365,VALID,358,VALID,0,
2013-10-11, 19:59:04,VALID,917.966,VALID,0,VALID,96.642,VALID,0,VALID,20.7755,VALID,5,VALID,0,
2013-10-11, 20:00:04,VALID,917.983,VALID,0,VALID,96.6497,VALID,0,VALID,20.717,VALID,16,VALID,0,
2013-10-11, 20:01:04,VALID,917.981,VALID,0,VALID,96.6573,VALID,0,VALID,20.717,VALID,355,VALID,0,
2013-10-11, 20:02:04,VALID,917.993,VALID,0,VALID,96.6649,VALID,0,VALID,20.7771,VALID,358,VALID,0,
2013-10-11, 20:03:04,VALID,917.99,VALID,0,VALID,96.6573,VALID,0,VALID,20.7966,VALID,358,VALID,0,
2013-10-11, 20:04:04,VALID,918.013,VALID,0,VALID,96.6649,VALID,0,VALID,20.7755,VALID,350,VALID,0,
2013-10-11, 20:05:04,VALID,918.048,VALID,0,VALID,96.642,VALID,0,VALID,20.7544,VALID,338,VALID,0,
2013-10-11, 20:06:04,VALID,918.068,VALID,0,VALID,96.6497,VALID,0,VALID,20.7544,VALID,329,VALID,0,
2013-10-11, 20:07:04,VALID,918.092,VALID,0,VALID,96.6725,VALID,0,VALID,20.756,VALID,330,VALID,0,
2013-10-11, 20:08:04,VALID,918.101,VALID,0,VALID,96.6344,VALID,0,VALID,20.7755,VALID,330,VALID,0,
2013-10-11, 20:09:04,VALID,918.128,VALID,0,VALID,96.6725,VALID,0,VALID,20.8145,VALID,330,VALID,0,
2013-10-11, 20:10:04,VALID,918.122,VALID,0.2,VALID,96.6573,VALID,0,VALID,20.7739,VALID,330,VALID,0,
2013-10-11, 20:11:04,VALID,918.143,VALID,0,VALID,96.6497,VALID,0,VALID,20.7755,VALID,330,VALID,0,
2013-10-11, 20:12:04,VALID,918.134,VALID,0,VALID,96.6725,VALID,0,VALID,20.8129,VALID,330,VALID,0,
2013-10-11, 20:13:04,VALID,918.09,VALID,0,VALID,96.6573,VALID,0,VALID,20.8535,VALID,329,VALID,0,
2013-10-11, 20:14:04,VALID,918.104,VALID,0,VALID,96.6649,VALID,0,VALID,20.8324,VALID,329,VALID,0,
2013-10-11, 20:15:04,VALID,918.089,VALID,0,VALID,96.6725,VALID,0.107441,VALID,20.8145,VALID,329,VALID,0,
2013-10-11, 20:16:04,VALID,918.104,VALID,0,VALID,96.6649,VALID,0,VALID,20.834,VALID,329,VALID,0,
2013-10-11, 20:17:04,VALID,918.106,VALID,0,VALID,96.6649,VALID,0,VALID,20.912,VALID,329,VALID,0,
2013-10-11, 20:18:04,VALID,918.102,VALID,0,VALID,96.6725,VALID,0,VALID,20.93,VALID,329,VALID,0,
2013-10-11, 20:19:04,VALID,918.086,VALID,0,VALID,96.6649,VALID,0,VALID,20.9706,VALID,329,VALID,0,
2013-10-11, 20:20:04,VALID,918.132,VALID,0,VALID,96.6802,VALID,0,VALID,21.0096,VALID,329,VALID,0,
2013-10-11, 20:21:04,VALID,918.117,VALID,0,VALID,96.6649,VALID,0,VALID,20.9495,VALID,329,VALID,0,
2013-10-11, 20:22:04,VALID,918.137,VALID,0,VALID,96.6649,VALID,0,VALID,20.8714,VALID,329,VALID,0,
2013-10-11, 20:23:04,VALID,918.175,VALID,0,VALID,96.6649,VALID,0,VALID,20.891,VALID,329,VALID,0,
2013-10-11, 20:24:04,VALID,918.175,VALID,0,VALID,96.6802,VALID,0,VALID,20.8925,VALID,329,VALID,0,
2013-10-11, 20:25:04,VALID,918.205,VALID,0,VALID,96.6802,VALID,0,VALID,20.8519,VALID,329,VALID,0,
2013-10-11, 20:26:04,VALID,918.263,VALID,0,VALID,96.6725,VALID,0,VALID,20.8714,VALID,329,VALID,0,
2013-10-11, 20:27:04,VALID,918.26,VALID,0,VALID,96.6802,VALID,0.107441,VALID,20.8324,VALID,330,VALID,0,
2013-10-11, 20:28:04,VALID,918.309,VALID,0,VALID,96.6725,VALID,0,VALID,20.8324,VALID,330,VALID,0,
2013-10-11, 20:29:04,VALID,918.32,VALID,0,VALID,96.6725,VALID,0,VALID,20.891,VALID,330,VALID,0,
2013-10-11, 20:30:04,VALID,918.349,VALID,0,VALID,96.6725,VALID,0,VALID,20.9316,VALID,330,VALID,0,
2013-10-11, 20:31:04,VALID,918.349,VALID,0,VALID,96.6802,VALID,0,VALID,20.912,VALID,330,VALID,0,
2013-10-11, 20:32:04,VALID,918.383,VALID,0,VALID,96.7107,VALID,0.107441,VALID,20.8519,VALID,330,VALID,0,
2013-10-11, 20:33:04,VALID,918.422,VALID,0,VALID,96.6954,VALID,0.107441,VALID,20.8714,VALID,330,VALID,0,
2013-10-11, 20:34:04,VALID,918.414,VALID,0,VALID,96.6954,VALID,0,VALID,20.8925,VALID,330,VALID,0,
2013-10-11, 20:35:04,VALID,918.407,VALID,0,VALID,96.6878,VALID,0,VALID,20.9136,VALID,330,VALID,0,
2013-10-11, 20:36:04,VALID,918.43,VALID,0,VALID,96.6802,VALID,0,VALID,20.9136,VALID,330,VALID,0,
2013-10-11, 20:37:04,VALID,918.437,VALID,0,VALID,96.7107,VALID,0,VALID,20.8746,VALID,329,VALID,0,
2013-10-11, 20:38:04,VALID,918.469,VALID,0,VALID,96.6954,VALID,0,VALID,20.9136,VALID,329,VALID,0,
2013-10-11, 20:39:04,VALID,918.44,VALID,0,VALID,96.6954,VALID,0,VALID,20.9527,VALID,329,VALID,0,
2013-10-11, 20:40:04,VALID,918.458,VALID,0,VALID,96.6878,VALID,0,VALID,20.9136,VALID,329,VALID,0,
2013-10-11, 20:41:04,VALID,918.478,VALID,0,VALID,96.703,VALID,0,VALID,20.8925,VALID,329,VALID,0,
2013-10-11, 20:42:04,VALID,918.49,VALID,0,VALID,96.703,VALID,0,VALID,20.9136,VALID,329,VALID,0,
2013-10-11, 20:43:04,VALID,918.565,VALID,0,VALID,96.6878,VALID,0,VALID,20.8535,VALID,329,VALID,0,
2013-10-11, 20:44:04,VALID,918.576,VALID,0,VALID,96.703,VALID,0,VALID,20.8925,VALID,329,VALID,0,
2013-10-11, 20:45:04,VALID,918.591,VALID,0,VALID,96.6954,VALID,0,VALID,20.8925,VALID,329,VALID,0,
2013-10-11, 20:46:04,VALID,918.601,VALID,0,VALID,96.6954,VALID,0,VALID,20.9136,VALID,329,VALID,0,
2013-10-11, 20:47:04,VALID,918.59,VALID,0,VALID,96.703,VALID,0,VALID,20.8925,VALID,329,VALID,0,
2013-10-11, 20:48:04,VALID,918.602,VALID,0,VALID,96.6954,VALID,0,VALID,20.8925,VALID,329,VALID,0,
2013-10-11, 20:49:04,VALID,918.59,VALID,0,VALID,96.7183,VALID,0,VALID,20.891,VALID,329,VALID,0,